sat.trackr.live / text

‹ back to catalog

NUSAT-47

NORAD 66743 · 2025-276CF

PAYLOAD ACTIVE UNKNOWN

§ Identity

Operator
Country
ARGN
Launch date
2025-11-28
Launch site
AFWTR
Launch vehicle
Mass (kg)
RCS (m²)

External: N2YO · Heavens-Above · Gunter

§ Orbital elements

Epoch: 2026-05-25T03:01:03.726048Z

Period
94.74 min
Inclination
97.4193°
Eccentricity
0.0003422
Mean motion
15.19994644 rev/d
Perigee alt
503.5 km
Apogee alt
508.2 km
Semi-major
6,884.0 km
B*
2.5736e-4
RAAN
219.1118°
Arg perigee
91.7786°
Mean anomaly
268.3841°
Rev number
2,692

§ Raw data

NUSAT-471 66743U 25276CF  26145.12573757  .00005475  00000+0  25736-3 0  99992 66743  97.4193 219.1118 0003422  91.7786 268.3841 15.19994644 26926

JSON: /api/v1/satellites/66743 · /tle

For live sub-satellite position, see the globe view (requires WebGL).

§ Visibility from observer

Set your observer location to see the next 7 days of passes ≥ 10°. The values pass through the URL so the page stays shareable.

No JS? Fill the form by hand. The geolocation button needs JavaScript.